Location: Cardiff
(53.7833°N, 113.6000°W)
Time: 05:27:10
(UTC+00:00)

SO-50 - Pass Details

Date: 13 December 2023
Orbit: 608 x 660 km, 64.6° (Epoch: 02 March)

Event Time Altitude Azimuth Distance (km) Brightness Sun altitude
Exits shadow 14:22:15 12° 323° (NW) 1,922 ? -11.0°
Maximum altitude 14:25:49 27° 19° (NNE) 1,225 ? -10.5°
Drops below altitude 10° 14:29:41 10° 78° (ENE) 2,003 ? -10.0°
Sets 14:32:15 0° 90° (E) 2,898 ? -9.7°
